Total_Precipitation_Accumulation
1.75 1.70 1.68 1.57 1.58 1.59 1.57 1.66 1.86 1.67 1.16 0.91 0.87 0.87 0.87 0.92 1.04 0.98 0.88 1.01 1.14 1.15 1.24 1.31 1.37 1.45 1.78 2.51 3.54 4.29 4.23 3.63 2.95 2.67 2.85 3.29 3.81 4.30
1.73 1.78 1.75 1.63 1.56 1.57 1.58 1.54 1.57 1.70 1.45 0.96 0.88 0.92 0.96 0.97 1.09 1.00 0.96 1.11 1.15 1.10 1.15 1.21 1.29 1.40 1.54 1.83 2.46 3.47 4.14 4.10 3.56 3.08 3.00 3.25 3.53 4.03
1.61 1.66 1.68 1.60 1.60 1.58 1.56 1.48 1.40 1.50 1.55 1.04 0.87 0.90 0.98 1.03 1.09 1.06 1.04 1.04 1.04 1.05 1.09 1.18 1.24 1.33 1.48 1.67 1.94 2.57 3.48 4.05 4.10 3.71 3.46 3.45 3.52 3.66
1.69 1.63 1.61 1.63 1.69 1.65 1.58 1.48 1.38 1.34 1.47 1.30 0.96 0.93 1.01 1.08 1.13 1.16 1.17 1.14 1.09 1.17 1.17 1.20 1.25 1.29 1.42 1.58 1.77 2.07 2.66 3.46 4.00 4.03 3.72 3.49 3.37 3.45
1.92 1.89 1.82 1.77 1.83 1.80 1.70 1.55 1.41 1.32 1.32 1.34 1.11 0.98 1.04 1.13 1.25 1.27 1.25 1.23 1.15 1.23 1.26 1.29 1.31 1.30 1.35 1.47 1.64 1.83 2.09 2.51 3.12 3.73 3.97 3.78 3.45 3.36
2.09 2.03 2.06 2.03 1.98 1.94 1.91 1.69 1.47 1.40 1.34 1.37 1.24 1.06 1.03 1.10 1.36 1.48 1.46 1.39 1.31 1.20 1.26 1.29 1.35 1.35 1.34 1.35 1.42 1.57 1.83 2.21 2.65 3.25 3.83 3.97 3.66 3.42
1.88 1.81 1.89 2.07 2.15 2.15 2.14 1.95 1.76 1.72 1.62 1.58 1.44 1.26 1.15 1.24 1.46 1.54 1.62 1.55 1.54 1.39 1.25 1.18 1.18 1.19 1.22 1.30 1.37 1.47 1.67 1.92 2.20 2.68 3.30 3.84 3.90 3.72
1.71 1.63 1.63 1.78 1.86 1.93 2.05 2.06 2.05 2.09 2.04 1.89 1.69 1.51 1.29 1.23 1.36 1.65 1.78 1.87 1.93 1.61 1.42 1.34 1.22 1.27 1.26 1.25 1.34 1.38 1.55 1.81 2.04 2.33 2.77 3.31 3.76 3.92
1.46 1.45 1.45 1.46 1.58 1.48 1.62 1.76 1.83 2.00 2.12 2.08 2.01 1.67 1.43 1.34 1.52 1.77 1.85 1.95 1.93 1.73 1.72 1.82 1.56 1.46 1.38 1.38 1.45 1.40 1.54 1.74 1.92 2.14 2.44 2.83 3.33 3.78
1.45 1.33 1.27 1.28 1.43 1.49 1.52 1.52 1.45 1.55 1.80 1.93 2.03 1.83 1.61 1.59 1.82 2.06 2.19 2.22 2.11 1.99 1.93 2.13 1.83 1.64 1.53 1.47 1.51 1.46 1.50 1.60 1.78 1.97 2.20 2.42 2.78 3.25
1.54 1.46 1.35 1.21 1.49 1.63 1.50 1.42 1.30 1.34 1.50 1.77 1.95 1.98 1.98 2.05 2.20 2.45 2.60 2.67 2.58 2.23 2.03 2.15 2.01 1.78 1.73 1.76 1.71 1.63 1.50 1.49 1.61 1.77 1.87 2.05 2.29 2.70
1.53 1.50 1.62 1.54 1.62 1.57 1.39 1.41 1.43 1.27 1.22 1.31 1.41 1.51 1.52 1.60 1.90 2.13 2.35 2.59 2.57 2.54 2.14 2.11 2.12 2.08 2.32 2.02 1.74 1.50 1.38 1.39 1.45 1.54 1.59 1.70 1.88 2.02
1.58 1.50 1.50 1.68 1.63 1.53 1.44 1.39 1.50 1.32 1.18 1.24 1.27 1.29 1.32 1.43 1.54 1.73 1.98 2.24 2.48 2.50 2.12 2.23 2.47 2.26 2.39 2.25 1.92 1.60 1.32 1.19 1.22 1.37 1.46 1.54 1.63 1.69
1.53 1.36 1.38 1.58 1.57 1.56 1.46 1.51 1.56 1.48 1.33 1.31 1.25 1.20 1.25 1.36 1.44 1.54 1.71 1.88 2.03 2.16 2.01 2.17 2.68 2.51 2.42 2.17 1.96 1.81 1.53 1.28 1.17 1.20 1.23 1.49 1.56 1.63
1.61 1.65 1.60 1.61 1.55 1.43 1.42 1.47 1.45 1.39 1.43 1.39 1.25 1.14 1.13 1.25 1.34 1.46 1.55 1.66 1.78 1.89 1.99 2.05 2.36 2.50 2.52 2.34 1.92 1.74 1.75 1.63 1.31 1.20 1.18 1.22 1.32 1.45
1.74 1.73 1.71 1.67 1.55 1.48 1.48 1.36 1.25 1.32 1.41 1.35 1.24 1.18 1.15 1.22 1.32 1.41 1.53 1.59 1.78 1.87 1.92 2.00 2.17 2.50 2.57 2.13 1.92 1.77 1.59 1.76 1.57 1.24 1.15 1.19 1.24 1.25
1.75 1.74 1.66 1.58 1.56 1.45 1.35 1.28 1.25 1.30 1.33 1.24 1.24 1.28 1.25 1.26 1.30 1.32 1.46 1.55 1.72 1.75 1.87 2.04 2.11 2.28 2.42 2.31 2.18 1.84 1.55 1.46 1.42 1.26 1.19 1.30 1.38 1.35
1.74 1.63 1.45 1.37 1.35 1.31 1.29 1.25 1.23 1.22 1.16 1.16 1.21 1.26 1.28 1.29 1.31 1.30 1.38 1.53 1.61 1.59 1.70 1.90 2.11 2.40 2.57 2.59 2.39 1.99 1.68 1.50 1.42 1.29 1.17 1.29 1.52 1.52
1.52 1.35 1.22 1.22 1.22 1.18 1.16 1.14 1.10 1.06 1.08 1.14 1.19 1.21 1.24 1.27 1.30 1.34 1.38 1.46 1.50 1.51 1.60 1.76 2.09 2.43 2.58 2.61 2.66 2.27 1.95 1.69 1.58 1.55 1.37 1.28 1.44 1.50
1.29 1.25 1.19 1.14 1.14 1.13 1.09 1.05 1.01 1.01 1.09 1.17 1.16 1.13 1.15 1.23 1.27 1.28 1.30 1.41 1.50 1.54 1.59 1.67 1.98 2.33 2.55 2.46 2.52 2.49 2.35 2.02 1.78 1.75 1.58 1.38 1.34 1.50
1.24 1.17 1.13 1.11 1.10 1.07 1.04 1.03 1.04 1.06 1.07 1.13 1.15 1.11 1.11 1.19 1.22 1.18 1.22 1.36 1.48 1.56 1.61 1.62 1.77 2.08 2.26 2.21 2.21 2.22 2.35 2.40 2.05 1.83 1.68 1.66 1.64 1.72
1.20 1.20 1.14 1.12 1.11 1.08 1.08 1.09 1.08 1.05 1.03 1.05 1.06 1.06 1.08 1.13 1.17 1.15 1.20 1.31 1.36 1.41 1.49 1.52 1.59 1.92 2.23 2.34 2.21 2.09 2.21 2.38 2.40 2.10 1.83 1.82 2.08 2.40
1.24 1.23 1.18 1.13 1.08 1.05 1.05 1.04 1.04 1.00 0.96 0.97 0.98 0.99 1.03 1.08 1.07 1.10 1.14 1.20 1.25 1.29 1.37 1.49 1.58 1.82 2.14 2.28 2.26 2.09 2.06 2.14 2.24 2.27 2.27 1.99 1.64 1.55